COSMOS 2251 DEB, 35836

Orbit data source: Space-Track

COSMOS 2251 DEB, 35836 is space debris in LEO originally from a launch on Wed, 16 Jun 1993 UTC launched from the Plesetsk Missile And Space Complex (PKMTR). The debris from Iridium 33, an American commercial communications satellite, has been tracked extensively since its accidental collision with the defunct Russian satellite Cosmos 2251 in 2009. This event, occurring at high speed in low Earth orbit (LEO), generated thousands of pieces of space debris, significantly increasing the risk of further collisions. The Iridium 33 debris cloud has impacted space traffic management and orbital debris mitigation strategies, making it a subject of ongoing study in space situational awareness.

Loading next visibility...
Identifier
35836, 1993-036ATJ
Orbit
LEO
Country
Flag of CISCIS
Related business
Manufacturer
Unknown
Mission
Spacecraft
Bus & Motor
Unknown
Mass
Unknown
Launch date (UTC)
1993-06-16 (33 years ago)
Launch vehicle
Unknown
Launch site
Plesetsk Missile And Space Complex (PKMTR)
Object type
Payload
Rocket body
Debris
Shape & HBR
Unknown shape, 0.1 m
Radar Cross Section
Small (<0.1 m²)

Expand to show TLE details & history
Last TLE update: 2 days ago

TLE from 2 days ago
0 COSMOS 2251 DEB
1 35836U 93036ATJ 26167.72928138  .00006287  00000-0  92925-3 0  9991
2 35836  74.0302 170.2700 0021891 191.1622 168.9069 14.75267769662594
Epoch: 2026-06-16T17:30Z
TLE epoch observation values (Epoch: 2026-06-16T17:30:09.911Z)
Latitude
-0.00004°
Longitude
2.73156°
Altitude
662.049 km
Speed
7.518 km/s
True Right ascension
11h 21m 04s
True Declination
0° 00' 00"
Sunlit
Object was in daylight at epoch
Visualization orbit readout
Latitude
Unknown
Longitude
Unknown
Altitude
Unknown
Speed
Unknown
Apparent Right ascension
Unknown
Apparent Declination
Unknown
Sunlit
N/A
Visualization observer readout
Local Sidereal Time
20:30:44
Azimuth
Unknown
Elevation
Unknown
Doppler factor
Unknown
Orbital elements
Apogee altitude
657.25 km
Perigee altitude
626.515 km
Semi-major axis
7,020.02 km
Eccentricity
0.00219
Inclination
74.0302°
RAAN
170.27°
Arg. of periapsis
191.1622°
True anomaly
168.95504°
Mean anomaly
168.9069°
Eccentric anomaly
168.93098°
Mean motion
3.69008 °/min
Orbital period
97.56 mins
BSTAR
0.00092925

Documentation

Showing up to 5 results
|